Date,TemperatureHighF,TemperatureAvgF,TemperatureLowF,DewpointHighF,DewpointAvgF,DewpointLowF,HumidityHigh,HumidityAvg,HumidityLow,PressureMaxIn,PressureMinIn,WindSpeedMaxMPH,WindSpeedAvgMPH,GustSpeedMaxMPH,PrecipitationSumIn
2014-1-1,16.5,11.1,0.8,12.4,5.8,-5.4,91,79,70,30.45,30.12,14,2,14,0.00
2014-1-2,4.5,0.5,-2.1,1.1,-3.7,-6.8,86,82,73,30.44,30.01,7,1,7,0.00
2014-1-3,0.1,-5.4,-15.1,-4.7,-10.5,-19.4,86,78,65,30.46,29.98,11,1,11,0.00
2014-1-4,21.7,2.6,-18.0,11.3,-4.1,-22.3,84,74,52,30.48,30.18,16,1,16,0.00
2014-1-5,35.2,23.4,12.7,30.4,18.4,9.9,96,82,62,30.29,29.86,7,0,7,0.00
2014-1-6,46.7,34.3,21.0,45.4,30.6,11.6,99,87,62,29.86,29.26,21,4,21,0.78
2014-1-7,21.0,9.7,5.3,16.5,-0.7,-7.5,91,62,49,30.07,29.44,31,8,31,0.00
2014-1-8,19.4,11.5,6.7,5.9,2.9,-0.8,80,68,52,30.41,30.07,13,2,13,0.00
2014-1-9,24.2,12.5,4.2,12.1,6.3,1.1,90,77,50,30.61,30.39,19,2,19,0.00
2014-1-10,28.5,16.3,2.0,25.3,12.5,-1.0,88,85,77,30.56,30.22,3,0,3,0.00
2014-1-11,49.0,36.9,27.9,48.7,35.9,24.9,99,96,88,30.22,29.13,14,1,14,0.45
2014-1-12,45.5,38.5,34.8,44.4,31.7,25.0,97,76,63,29.91,29.21,21,5,21,0.00
2014-1-13,46.3,37.8,29.2,33.2,28.4,25.5,88,70,46,30.00,29.77,13,2,13,0.00
2014-1-14,41.2,38.4,36.8,39.1,36.5,33.2,98,93,74,29.78,29.66,9,0,9,0.40
2014-1-15,44.7,36.9,30.8,35.9,33.1,30.0,98,87,65,29.93,29.76,14,1,14,0.03
2014-1-16,34.0,30.0,28.2,32.9,28.5,26.6,96,94,90,29.95,29.88,4,0,4,0.01
2014-1-17,37.2,30.4,24.5,29.3,26.0,21.6,97,85,67,29.92,29.83,13,1,13,0.03
2014-1-18,39.7,27.1,16.3,29.2,23.2,14.4,94,86,65,29.90,29.67,7,0,7,0.02
2014-1-19,30.7,28.2,25.6,27.6,23.2,17.9,94,81,70,29.70,29.40,19,3,19,0.00
2014-1-20,30.2,18.9,1.2,25.3,14.3,-5.2,92,82,73,29.97,29.41,13,2,13,0.00
2014-1-21,5.7,-0.6,-6.6,-4.5,-7.6,-10.7,84,72,55,30.14,29.97,9,1,9,0.00
2014-1-22,7.3,-4.5,-10.8,-3.7,-10.5,-14.8,84,75,57,30.09,29.86,13,1,13,0.00
2014-1-23,12.8,-1.2,-13.3,0.4,-8.0,-17.2,84,73,55,30.22,30.01,14,1,14,0.00
2014-1-24,14.6,4.7,-5.7,1.0,-4.7,-10.3,83,66,44,30.29,29.88,16,3,16,0.00
2014-1-25,21.1,17.3,12.1,19.0,11.3,0.8,93,78,58,29.88,29.28,18,3,18,0.00
2014-1-26,20.9,9.6,-0.5,17.5,-0.7,-9.8,90,63,48,29.79,29.28,20,4,20,0.00
2014-1-27,31.2,18.8,10.1,28.7,8.1,-6.4,93,65,33,29.97,29.41,35,5,35,0.00
2014-1-28,16.4,9.7,4.4,-2.0,-4.9,-9.2,65,51,39,30.23,29.97,18,4,18,0.00
2014-1-29,19.9,9.1,-5.9,2.9,-3.6,-10.0,83,58,34,30.18,29.91,20,3,20,0.00
2014-1-30,28.1,18.1,7.4,11.3,7.1,2.7,82,63,43,30.38,30.02,18,2,18,0.00
2014-1-31,34.6,27.9,21.1,22.0,15.2,7.4,77,59,48,30.16,29.94,15,2,15,0.01
2014-2-1,37.3,27.7,15.7,32.1,23.0,13.5,95,83,62,30.32,29.92,14,2,14,0.02
2014-2-2,37.8,33.9,28.0,34.7,31.5,20.2,95,91,73,30.12,29.81,11,2,11,0.06
2014-2-3,35.2,25.8,14.1,22.1,19.0,10.6,88,76,55,30.32,30.12,9,1,9,0.01
2014-2-4,30.8,17.4,4.5,17.8,10.4,1.4,89,75,50,30.48,30.31,8,1,8,0.00
2014-2-5,25.0,20.0,13.1,22.1,17.5,9.7,94,90,82,30.36,29.78,6,0,6,0.00
2014-2-6,23.2,10.6,-0.8,12.9,5.8,-4.0,89,81,59,30.30,30.04,7,0,7,0.00
2014-2-7,24.6,13.0,-1.0,12.6,6.2,-4.2,89,75,57,30.20,30.12,15,2,15,0.01
2014-2-8,25.7,15.2,3.7,10.2,5.8,-0.8,84,67,48,30.26,30.14,12,2,12,0.00
2014-2-9,26.5,16.4,6.9,18.0,10.3,3.9,93,78,51,30.19,29.94,8,1,8,0.01
2014-2-10,21.5,15.3,8.0,16.4,11.2,5.2,93,84,64,30.21,29.93,16,2,16,0.00
2014-2-11,17.0,7.4,-3.1,7.0,1.1,-6.5,89,76,59,30.52,30.20,18,2,18,0.00
2014-2-12,29.7,8.2,-11.1,8.1,-3.2,-15.1,85,63,34,30.62,30.36,11,1,11,0.04
2014-2-13,27.2,17.5,7.0,25.4,13.1,-0.1,95,83,65,30.36,29.27,9,0,9,0.00
2014-2-14,27.2,25.0,24.2,25.5,22.6,21.7,93,90,89,29.69,29.26,13,3,16,0.00
2014-2-15,30.7,23.9,18.3,29.4,22.3,16.6,96,94,89,29.83,29.68,13,0,13,0.00
2014-2-16,21.7,15.8,10.1,18.2,9.9,1.9,90,78,62,30.04,29.67,24,5,24,0.00
2014-2-17,20.1,10.5,-1.5,2.8,-2.1,-6.6,80,58,38,30.40,30.04,15,4,15,0.00
2014-2-18,23.4,10.5,-6.3,20.6,7.4,-10.1,93,87,79,30.34,30.04,5,0,5,0.00
2014-2-19,31.4,21.7,9.4,28.3,19.3,7.1,94,91,79,30.07,29.76,15,1,15,0.00
2014-2-20,43.9,35.8,28.8,32.2,28.3,23.6,96,76,46,30.15,29.88,15,2,15,0.27
2014-2-21,36.9,35.1,33.2,35.8,33.8,31.7,98,95,90,30.08,29.67,15,1,15,0.76
2014-2-22,45.4,39.3,32.2,33.1,22.9,7.2,98,56,26,29.88,29.73,25,7,31,0.16
2014-2-23,45.7,38.8,31.0,23.9,17.4,10.0,58,42,29,29.90,29.75,20,4,20,0.03
2014-2-24,31.0,22.5,16.4,19.0,12.9,8.6,87,67,50,29.92,29.75,24,5,24,0.00
2014-2-25,19.1,14.8,10.6,12.9,9.6,6.4,89,80,64,29.96,29.88,15,2,19,0.00
2014-2-26,20.7,11.4,2.3,12.9,1.8,-5.9,90,67,37,29.91,29.76,29,4,29,0.00
2014-2-27,22.9,10.8,0.9,12.9,2.4,-5.5,89,70,39,29.84,29.56,22,3,22,0.00
2014-3-1,28.1,26.5,20.0,13.9,7.5,-0.5,59,44,33,30.28,30.02,15,3,16,0.00
2014-3-2,29.0,20.2,6.3,22.8,11.6,0.3,90,69,51,30.12,30.00,11,2,11,0.01
2014-3-3,17.4,7.4,-1.3,1.4,-3.0,-8.8,87,64,37,30.35,30.07,16,2,16,0.00
2014-3-4,25.0,8.2,-11.3,10.9,-2.0,-15.5,84,66,30,30.38,30.27,12,1,12,0.00
2014-3-5,23.6,14.9,2.3,13.2,7.6,-3.8,88,73,52,30.61,30.29,12,1,12,0.01
2014-3-6,33.8,10.2,-9.4,1.0,-4.9,-13.4,84,57,18,30.73,30.50,6,0,8,0.00
2014-3-7,41.1,20.8,-3.7,12.9,2.0,-7.6,84,50,18,30.50,29.94,16,2,16,0.00
2014-3-8,38.2,26.5,17.7,28.7,17.9,10.6,81,70,50,29.94,29.81,11,1,11,0.00
2014-3-9,30.6,21.0,8.0,14.6,9.5,4.5,90,64,35,30.00,29.85,17,2,17,0.00
2014-3-10,36.1,28.5,20.9,31.3,23.4,11.8,94,82,61,29.86,29.51,9,1,9,0.04
2014-3-11,44.6,36.4,29.0,36.3,32.0,26.6,96,85,62,29.72,29.44,17,2,17,0.11
2014-3-12,32.9,26.5,17.1,31.6,24.8,15.2,95,93,90,29.72,29.30,11,1,15,0.04
2014-3-13,17.0,11.6,7.4,15.3,6.7,2.3,93,81,65,29.96,29.30,19,5,19,0.00
2014-3-14,30.8,16.8,-4.8,21.6,9.3,-8.4,86,72,57,30.11,29.77,19,2,19,0.03
2014-3-15,46.4,34.5,25.0,35.5,28.5,20.6,95,79,61,29.89,29.60,20,4,20,0.46
2014-3-16,26.8,15.7,6.3,24.4,6.2,-3.6,92,67,47,30.26,29.88,26,4,26,0.00
2014-3-25,17.8,17.8,17.7,9.7,9.6,9.3,70,70,69,30.00,30.00,1,0,5,0.02
2014-3-26,27.3,19.8,12.6,15.0,8.7,1.0,82,63,44,30.07,29.82,27,4,27,0.00
2014-3-27,38.1,25.1,11.3,13.2,5.1,-0.0,64,44,25,30.31,30.07,18,3,18,0.00
2014-3-28,42.9,36.1,31.0,42.0,31.3,11.1,97,84,38,30.13,29.84,14,3,14,0.26
2014-3-29,46.5,40.6,36.0,42.9,35.8,32.4,97,84,67,30.27,30.01,15,1,15,0.05
2014-3-30,39.9,35.7,32.0,38.8,34.3,29.9,98,95,91,30.02,29.77,13,1,13,0.89
2014-3-31,37.1,33.4,29.7,29.9,28.2,26.0,92,81,72,30.17,29.86,15,3,16,0.01
2014-4-1,54.2,38.8,26.8,29.7,25.9,20.0,81,62,34,30.17,30.00,10,1,10,0.00
2014-4-2,56.8,43.4,33.0,35.9,30.7,26.0,83,62,39,30.04,29.95,11,2,11,0.00
2014-4-3,46.4,36.1,30.0,27.8,25.0,23.0,80,65,44,30.19,30.04,14,2,14,0.00
2014-4-4,50.9,35.3,22.4,34.1,26.3,19.8,93,72,40,30.17,29.83,23,3,23,0.17
2014-4-5,43.4,37.1,34.4,37.9,31.4,25.0,96,81,54,29.93,29.67,27,4,27,0.07
2014-4-6,51.4,38.6,31.5,28.5,25.0,21.3,79,60,34,30.16,29.93,23,4,23,0.00
2014-4-7,33.5,33.5,33.4,26.8,26.8,26.6,76,76,76,30.16,30.16,0,0,0,0.00
2014-4-8,52.9,45.5,36.8,48.2,42.4,35.0,97,89,80,29.51,29.23,17,3,17,0.26
2014-4-9,44.2,37.5,28.9,36.7,24.5,11.8,95,62,30,29.93,29.51,27,4,27,0.00
2014-4-10,56.3,52.1,30.5,32.0,30.6,18.3,60,44,37,29.93,29.80,14,5,17,0.00
2014-4-11,60.9,51.0,46.3,42.1,35.0,27.6,80,56,29,29.94,29.80,20,4,20,0.00
2014-4-16,33.9,29.4,22.8,20.1,16.5,14.4,78,59,47,30.66,30.42,15,3,15,0.02
2014-4-17,47.9,32.8,17.5,21.3,18.4,15.6,94,60,30,30.82,30.64,16,2,16,0.01
2014-4-18,51.7,40.1,25.8,28.7,21.3,14.0,80,49,23,30.65,30.18,16,2,16,0.00
2014-4-19,46.2,39.7,32.1,40.9,31.4,25.1,92,73,51,30.46,30.12,19,2,19,0.00
2014-4-20,62.7,43.2,24.4,29.0,21.8,11.1,95,52,16,30.53,30.23,9,1,13,0.00
2014-4-21,73.5,54.5,35.4,39.9,32.3,25.9,79,48,19,30.23,29.75,19,2,19,0.00
2014-4-22,67.7,55.6,46.0,52.3,43.8,30.6,91,67,26,29.75,29.40,20,1,20,0.03
2014-4-23,51.6,44.7,40.6,48.6,39.5,32.6,93,82,69,29.72,29.41,17,4,17,0.00
2014-4-24,52.7,42.5,34.6,32.9,27.4,23.2,74,56,41,29.98,29.72,19,5,24,0.00
2014-4-25,62.2,46.8,29.2,33.4,25.6,15.1,87,49,17,30.03,29.74,12,1,12,0.00
2014-4-26,48.9,43.0,40.7,41.9,39.1,29.0,97,88,49,29.82,29.69,14,2,14,0.34
2014-4-27,46.4,40.9,36.3,40.6,37.4,34.7,97,88,74,30.12,29.82,10,2,12,0.01
2014-4-28,54.9,46.8,35.5,41.1,38.2,33.5,95,73,55,30.19,30.07,17,1,17,0.00
2014-4-29,58.2,49.6,42.4,39.7,34.7,24.9,80,59,31,30.45,30.19,27,5,27,0.01
2014-4-30,44.5,40.9,38.2,39.6,37.7,34.1,96,88,75,30.48,30.11,17,2,17,0.37
2014-5-1,67.9,49.7,39.0,55.4,46.2,37.8,98,89,63,30.12,29.61,13,1,13,0.27
2014-5-2,58.8,49.3,38.1,47.0,41.1,35.0,98,75,53,29.77,29.62,21,2,21,0.01
2014-5-3,62.5,50.9,42.4,48.2,42.7,35.5,96,75,47,29.81,29.66,12,1,20,0.04
2014-5-4,52.7,46.5,43.8,47.4,43.8,42.0,97,91,70,29.66,29.48,16,2,16,0.39
2014-5-5,50.7,46.4,43.2,45.6,42.4,39.3,96,86,70,29.88,29.65,14,3,14,0.01
2014-5-6,58.4,47.5,37.7,41.0,34.6,28.5,97,65,35,30.06,29.85,17,3,17,0.00
2014-5-7,63.0,47.9,30.7,38.0,31.6,23.5,94,59,23,30.21,30.06,19,2,19,0.00
2014-5-8,72.7,52.6,31.0,38.4,30.7,25.0,93,51,19,30.21,30.07,11,1,11,0.00
2014-5-9,56.7,51.8,46.0,50.9,41.4,32.2,90,68,46,30.17,29.98,18,2,18,0.00
2014-5-10,78.2,65.0,53.8,63.8,51.4,30.7,98,67,31,29.99,29.65,24,4,24,0.27
2014-5-11,72.8,61.4,49.7,44.5,40.2,34.7,72,47,28,29.98,29.76,19,4,19,0.00
2014-5-12,78.3,62.4,43.6,46.6,42.1,39.4,86,51,29,30.09,29.98,19,2,19,0.00
2014-5-13,60.9,55.5,51.0,48.1,44.4,39.9,79,67,48,30.23,30.08,11,2,12,0.00
2014-5-14,80.0,63.2,49.4,57.0,48.7,40.7,80,61,42,30.22,30.08,14,3,14,0.00
2014-5-15,74.2,67.0,57.5,64.2,59.3,50.5,88,77,62,30.17,30.04,24,4,24,0.00
2014-5-16,69.8,67.0,64.5,63.0,61.5,58.9,93,83,72,30.04,29.80,24,6,24,0.06
2014-5-17,67.2,58.4,50.6,62.0,49.6,40.3,98,75,43,30.06,29.67,26,3,26,0.73
2014-5-18,64.3,51.9,38.7,44.2,36.7,29.1,96,61,29,30.16,30.06,16,2,16,0.00
2014-5-19,63.2,52.7,39.8,41.4,38.3,35.6,86,60,40,30.11,30.02,16,2,16,0.00
2014-5-20,72.3,56.5,38.0,45.4,39.0,34.7,96,58,28,30.09,29.95,20,2,20,0.00
2014-5-21,76.0,58.8,39.6,51.1,43.0,37.7,94,61,28,29.99,29.84,9,1,9,0.00
2014-5-22,62.7,55.7,49.8,55.7,52.1,47.6,96,88,69,29.86,29.79,14,1,14,0.32
2014-5-23,63.0,56.1,53.7,56.9,54.1,52.8,98,93,78,29.96,29.81,11,1,11,0.19
2014-5-24,66.8,56.9,52.6,58.6,53.7,51.6,98,90,62,30.04,29.94,12,1,12,0.25
2014-5-25,77.3,62.1,49.5,57.5,50.9,42.9,99,72,30,30.05,29.91,14,1,14,0.01
2014-5-26,75.8,63.1,54.6,60.5,56.7,52.6,97,81,49,29.91,29.74,18,2,18,0.10
2014-5-27,77.2,61.2,50.4,64.9,57.1,48.5,99,88,58,29.88,29.69,17,2,17,0.17
2014-5-28,55.4,50.7,47.3,50.3,48.1,45.7,96,91,79,30.20,29.87,7,0,7,0.14
2014-5-29,70.2,56.1,46.0,50.9,45.8,31.0,98,74,26,30.24,30.06,13,1,13,0.01
2014-5-30,68.3,57.7,47.6,54.1,50.0,46.1,95,77,49,30.09,29.98,17,2,17,0.05
2014-5-31,70.0,55.9,45.5,54.2,49.2,45.0,99,81,50,30.29,30.09,14,1,14,0.01
2014-6-1,77.8,60.3,44.8,54.7,47.5,39.6,98,68,29,30.34,30.13,12,1,12,0.00
2014-6-2,85.3,67.3,45.9,59.6,51.3,44.3,96,62,26,30.15,29.91,14,1,14,0.00
2014-6-3,86.0,68.9,53.9,65.1,58.6,51.9,95,73,45,29.94,29.72,21,2,21,0.20
2014-6-4,76.7,65.9,57.6,59.2,54.4,48.1,95,70,38,29.80,29.65,15,2,15,0.00
2014-6-5,73.4,59.7,47.6,59.2,52.8,45.7,96,80,48,29.73,29.61,11,1,11,0.15
2014-6-6,68.1,59.4,53.5,59.0,55.0,52.3,97,86,65,29.88,29.71,12,2,16,0.03
2014-6-7,80.3,66.2,56.3,59.1,55.0,51.9,91,71,40,29.94,29.86,11,1,13,0.00
2014-6-8,84.5,67.3,51.1,62.7,54.8,48.2,98,69,30,29.94,29.80,9,0,9,0.00
2014-6-9,83.8,68.3,58.5,64.6,60.6,56.5,95,79,45,29.92,29.85,11,1,11,0.13
2014-6-10,77.0,67.3,60.2,65.2,61.1,56.1,98,82,60,30.07,29.88,11,1,11,0.01
2014-6-11,73.5,59.6,52.1,59.3,53.7,49.8,98,83,45,30.14,30.06,18,1,18,0.30
2014-6-12,59.0,56.2,53.3,58.2,55.2,52.2,98,96,93,30.11,29.98,7,0,7,0.52
2014-6-13,63.4,60.3,58.7,60.4,58.9,57.8,97,95,89,29.99,29.77,16,1,16,0.46
2014-6-14,71.2,61.6,56.9,59.7,56.2,51.8,98,84,56,29.92,29.75,15,2,15,0.22
2014-6-22,70.8,59.7,55.6,53.0,52.2,50.6,85,77,52,30.01,29.95,1,0,1,0.00
2014-6-23,81.5,68.4,47.2,58.9,53.4,45.6,97,63,32,30.10,30.00,12,1,12,0.00
2014-6-24,73.3,67.8,60.9,65.0,61.3,55.9,87,80,72,30.04,29.85,12,2,12,0.00
2014-6-25,72.9,69.3,66.3,69.7,67.1,63.8,98,93,81,29.86,29.81,8,0,8,1.02
2014-6-26,77.0,68.4,58.9,66.7,63.3,56.4,99,85,59,30.00,29.77,11,1,11,0.20
2014-6-27,84.5,68.3,54.8,63.7,55.0,45.8,99,69,28,30.17,30.00,10,1,10,0.00
2014-6-28,85.3,69.3,53.3,62.8,56.4,51.0,95,68,33,30.26,30.16,9,0,9,0.00
2014-6-29,86.2,71.1,55.0,66.3,59.6,53.3,97,71,36,30.21,29.99,9,1,9,0.00
2014-6-30,85.3,74.4,61.2,72.7,66.7,59.5,96,78,59,30.00,29.81,11,1,11,0.01
2014-7-1,90.2,78.5,66.1,74.3,69.4,64.2,95,76,50,29.84,29.63,16,1,16,0.00
2014-7-2,89.8,77.8,69.6,75.2,69.4,61.7,96,78,41,29.84,29.67,16,2,16,0.21
2014-7-3,87.5,74.4,65.1,71.3,67.4,63.9,97,81,49,29.92,29.78,18,1,18,0.42
2014-7-4,69.3,65.4,59.0,66.9,62.7,56.4,96,91,85,29.97,29.85,9,0,9,0.13
2014-7-5,77.7,66.0,57.4,56.4,52.0,46.0,91,62,42,30.01,29.87,21,4,21,0.00
2014-7-6,81.2,71.6,62.2,58.3,54.3,50.7,77,56,40,29.93,29.76,15,3,15,0.00
2014-7-7,78.7,67.9,56.0,70.2,61.4,53.1,94,80,61,29.78,29.60,12,1,12,0.01
2014-7-8,86.0,76.4,67.2,71.0,67.7,65.2,94,76,54,29.69,29.46,23,2,23,0.07
2014-7-9,79.1,70.6,63.5,68.4,62.3,57.4,93,76,52,29.87,29.53,19,3,19,0.31
2014-7-10,74.3,65.3,54.9,61.3,54.3,49.8,97,70,44,30.16,29.87,11,2,11,0.00
2014-7-11,78.8,64.6,49.7,59.4,52.9,47.4,96,69,40,30.24,30.14,11,1,11,0.00
2014-7-12,85.2,68.6,50.5,66.5,58.6,48.9,97,73,46,30.20,30.00,10,1,10,0.00
2014-7-13,81.7,71.8,65.0,70.8,67.2,62.6,96,86,66,30.01,29.74,11,1,11,0.35
2014-7-14,81.3,71.4,65.1,69.3,66.1,62.2,98,85,53,29.84,29.75,11,1,11,0.08
2014-7-15,78.7,71.1,63.7,72.8,67.5,62.8,98,89,75,29.81,29.65,6,0,9,0.04
2014-7-16,78.0,68.7,60.9,66.9,62.0,54.7,98,81,47,29.84,29.68,15,1,15,0.23
2014-7-17,71.3,63.2,54.9,59.0,56.0,52.9,98,79,53,30.06,29.84,11,1,11,0.00
2014-7-18,78.3,64.2,50.8,59.2,54.5,49.6,98,74,43,30.23,30.06,13,1,13,0.00
2014-7-19,77.8,65.1,53.0,63.6,57.8,51.9,98,79,51,30.27,30.17,8,0,8,0.00
2014-7-20,79.1,67.4,57.8,64.6,58.5,53.5,98,76,45,30.18,30.08,13,1,13,0.00
2014-7-21,85.5,70.1,55.8,65.1,59.7,53.8,95,73,42,30.18,30.05,10,0,10,0.00
2014-7-22,86.5,74.4,61.2,69.1,65.0,59.5,95,75,49,30.09,29.87,8,1,8,0.00
2014-7-23,88.0,72.6,65.1,73.0,67.9,63.4,97,87,59,29.88,29.64,16,1,16,1.24
2014-7-24,71.1,63.6,53.7,65.0,53.2,51.1,94,71,52,29.92,29.79,11,1,11,0.00
2014-7-25,77.0,64.0,50.5,62.2,56.1,49.4,97,78,53,29.97,29.87,11,1,11,0.00
2014-7-26,77.9,65.4,54.4,62.5,57.1,53.4,98,77,51,29.92,29.80,12,1,12,0.01
2014-7-27,78.0,67.8,62.4,68.2,64.3,61.2,97,89,71,29.65,29.58,3,1,8,0.44
2014-7-28,69.9,63.9,59.5,66.6,62.5,58.5,99,95,84,29.64,29.44,10,1,10,1.16
2014-7-29,70.8,61.5,54.4,58.5,54.8,51.3,98,80,53,29.94,29.57,13,2,13,0.01
2014-7-30,74.5,60.9,49.5,59.4,53.9,48.7,98,80,52,30.03,29.94,4,0,7,0.00
2014-7-31,73.8,62.1,53.3,63.9,57.2,52.2,97,85,63,30.10,29.99,17,1,17,0.09
2014-8-1,82.8,67.4,53.2,66.7,59.0,52.1,99,77,47,30.17,30.09,11,1,11,0.00
2014-8-2,83.3,69.1,58.5,68.2,61.9,56.9,97,79,53,30.17,30.04,15,1,15,0.00
2014-8-3,81.7,68.9,58.6,67.3,62.3,56.9,96,81,53,30.10,29.98,8,0,8,0.00
2014-8-4,80.9,70.4,63.8,68.5,64.1,58.4,96,82,49,30.01,29.95,7,0,7,0.09
2014-8-5,82.0,66.7,59.3,68.3,62.2,58.2,98,87,52,30.00,29.86,20,1,20,0.21
2014-8-6,74.4,65.7,55.3,64.5,59.4,52.8,99,82,52,29.90,29.81,11,1,11,0.01
2014-8-7,71.3,60.8,53.7,60.7,56.3,52.6,98,86,59,29.96,29.84,18,1,18,0.17
2014-8-8,77.2,64.7,54.6,61.6,57.6,54.0,99,80,52,30.03,29.95,13,1,13,0.01
2014-8-9,81.6,66.1,52.3,63.6,56.8,51.1,98,75,41,30.11,30.02,10,1,10,0.00
2014-8-10,81.6,66.1,53.0,64.1,58.1,51.8,98,78,48,30.14,30.06,10,1,10,0.00
2014-8-11,86.8,68.8,54.9,66.2,59.6,53.8,98,76,39,30.14,30.02,8,0,8,0.01
2014-8-12,80.5,68.4,57.5,64.8,60.5,56.7,98,78,53,30.05,29.92,17,2,17,0.00
2014-8-13,68.9,65.5,59.2,63.3,61.6,58.6,98,87,77,29.93,29.66,17,3,17,1.18
2014-8-14,68.0,59.3,51.6,59.0,54.4,50.1,99,85,55,29.83,29.64,12,1,12,0.01
2014-8-15,65.6,57.4,51.0,55.3,52.9,50.2,98,86,66,29.86,29.81,11,1,11,0.00
2014-8-16,67.9,60.8,54.8,58.3,55.8,53.2,97,85,62,29.89,29.81,11,1,11,0.05
2014-8-17,67.8,61.0,58.6,60.0,57.2,55.5,96,87,73,29.83,29.75,11,1,11,0.01
2014-8-18,67.2,59.8,50.6,57.2,53.6,49.2,95,81,60,29.89,29.79,13,2,13,0.00
2014-8-19,78.0,59.9,47.6,60.1,52.9,46.8,98,81,44,29.94,29.87,7,0,7,0.01
2014-8-20,81.8,64.7,50.6,65.3,57.5,49.8,99,80,51,30.01,29.94,8,0,8,0.00
2014-8-21,66.4,61.0,58.6,62.4,59.2,57.2,98,94,78,30.07,30.00,9,0,9,0.30
2014-8-22,64.7,61.3,58.4,63.3,60.1,57.5,98,96,90,30.11,30.05,4,0,4,0.13
2014-8-23,77.5,65.8,58.7,64.8,59.3,52.8,99,82,45,30.14,30.08,11,0,11,0.01
2014-8-24,82.0,66.9,55.9,66.6,59.8,55.1,98,81,44,30.17,30.07,9,0,9,0.00
2014-8-25,86.5,68.6,56.9,68.9,61.0,56.3,99,80,45,30.18,30.07,8,0,8,0.01
2014-8-26,84.9,69.4,55.8,68.4,60.0,54.6,99,76,37,30.13,29.93,8,1,14,0.01
2014-8-27,83.5,70.2,61.1,69.7,63.0,59.1,96,79,54,29.93,29.80,11,1,11,0.00
2014-8-28,67.7,62.2,55.7,60.2,55.0,50.1,97,79,55,30.01,29.82,15,2,15,0.00
2014-8-29,75.5,62.3,51.4,61.0,55.2,50.0,97,79,51,30.18,30.01,9,0,9,0.00
2014-8-30,78.9,65.1,52.4,64.4,57.6,51.6,98,79,48,30.20,30.01,13,2,13,0.00
2014-8-31,75.3,69.1,63.2,70.4,66.2,60.2,96,91,81,30.01,29.88,9,1,9,0.06
2014-9-1,84.5,71.9,62.8,70.3,65.4,62.2,99,82,51,29.94,29.84,9,0,9,0.01
2014-9-2,86.1,74.5,60.7,72.1,66.8,59.8,98,79,54,29.87,29.66,11,1,11,0.58
2014-9-3,77.3,67.3,57.6,64.2,60.1,55.3,98,80,50,30.05,29.68,14,2,16,0.02
2014-9-4,81.8,66.3,51.5,64.8,58.6,50.7,98,79,49,30.14,30.03,12,1,13,0.00
2014-9-5,87.2,72.4,57.7,70.2,64.9,56.6,98,79,53,30.09,29.84,10,1,12,0.01
2014-9-6,77.8,69.9,59.8,70.0,65.0,58.6,97,85,67,29.90,29.69,15,2,16,0.08
2014-9-7,71.9,60.6,49.6,59.2,52.9,48.6,98,78,50,30.22,29.89,14,1,15,0.01
2014-9-8,77.3,60.3,48.3,58.8,52.4,47.5,99,79,43,30.37,30.21,8,1,9,0.01
2014-9-9,72.5,59.1,46.3,55.2,50.9,45.0,98,77,48,30.38,30.17,14,0,14,0.00
2014-9-10,75.3,59.8,45.6,61.2,54.2,44.5,98,83,59,30.18,29.94,9,1,11,0.00
2014-9-11,71.1,63.1,55.1,68.4,59.1,49.3,95,87,78,29.94,29.65,18,3,19,0.09
2014-9-12,55.0,50.2,42.1,49.2,44.5,39.5,91,81,74,30.29,29.94,11,1,12,0.00
2014-9-13,51.9,45.8,37.5,51.1,44.3,36.2,98,95,87,30.29,30.08,14,0,14,0.19
2014-9-14,54.9,47.2,38.4,46.2,42.2,36.8,95,83,68,30.28,30.13,13,2,15,0.00
2014-9-15,65.5,48.7,36.4,49.7,42.6,35.6,98,82,47,30.26,30.06,7,0,9,0.00
2014-9-16,64.8,53.5,48.1,54.8,50.4,46.7,98,90,65,30.06,29.91,9,0,10,0.08
2014-9-17,67.5,52.8,41.1,52.7,46.3,40.4,99,81,48,30.01,29.90,8,1,8,0.00
2014-9-18,56.1,48.0,38.0,51.5,44.0,36.3,98,87,64,30.20,29.91,10,1,10,0.01
2014-9-19,60.9,43.8,32.8,38.7,34.0,28.3,98,74,31,30.41,30.20,11,1,11,0.00
2014-9-20,61.6,52.4,40.1,58.0,48.1,36.3,89,85,79,30.31,29.97,12,2,12,0.00
2014-9-21,79.7,67.9,57.1,66.1,60.9,53.7,94,79,57,29.97,29.49,17,2,17,0.08
2014-9-22,63.8,53.7,46.9,62.2,48.3,38.7,97,82,68,30.08,29.45,22,4,22,0.04
2014-9-23,62.9,52.7,43.8,52.9,46.2,39.1,94,79,62,30.42,30.07,12,1,16,0.00
2014-9-24,71.8,55.7,46.5,56.2,49.6,46.0,98,82,49,30.60,30.41,10,1,10,0.01
2014-9-25,69.5,53.5,43.2,57.3,48.7,42.4,98,86,60,30.52,30.28,7,0,7,0.00
2014-9-26,68.4,57.4,53.4,56.6,54.3,51.6,95,90,65,30.20,30.16,1,0,3,0.01
2014-9-27,79.0,61.3,48.7,63.7,55.9,47.9,99,84,58,30.23,30.14,9,1,9,0.01
2014-9-28,81.7,64.2,54.1,66.0,58.9,53.5,99,85,56,30.17,29.96,7,1,7,0.01
2014-9-29,74.7,63.1,56.2,62.6,58.4,55.5,99,86,60,29.98,29.89,9,0,9,0.01
2014-9-30,64.2,59.5,53.5,58.5,55.8,52.2,96,87,80,30.03,29.94,8,1,8,0.00
2014-10-1,67.0,58.7,53.6,58.1,54.8,52.5,98,88,66,30.12,30.02,7,0,8,0.01
2014-10-2,72.6,60.2,52.7,58.3,54.7,51.8,98,84,57,30.17,30.05,7,0,8,0.00
2014-10-3,74.9,59.0,47.3,53.5,49.4,44.6,98,74,37,30.10,29.82,13,1,16,0.00
2014-10-4,57.7,55.2,49.3,57.0,53.3,48.2,98,93,86,29.82,29.50,13,1,14,0.74
2014-10-5,58.7,49.6,39.3,48.4,43.0,37.4,97,80,46,29.90,29.57,9,1,9,0.01
2014-10-6,64.8,48.8,32.9,47.5,40.4,32.1,98,76,44,30.05,29.90,15,2,17,0.01
2014-10-7,67.7,58.8,50.1,59.1,51.8,47.3,96,79,53,30.03,29.87,18,2,18,0.17
2014-10-8,64.8,57.1,50.6,56.8,49.1,37.9,98,76,45,29.87,29.57,25,4,25,0.27
2014-10-9,54.6,49.2,44.9,42.4,38.5,34.0,88,67,50,29.93,29.77,22,4,22,0.00
2014-10-10,57.2,48.1,37.5,42.1,39.1,34.2,89,72,50,30.11,29.93,17,2,17,0.00
2014-10-11,55.1,45.7,38.4,43.3,39.2,35.1,97,80,47,30.14,30.05,9,1,9,0.00
2014-10-12,57.9,44.2,34.7,42.5,36.0,32.8,97,76,40,30.28,30.14,11,1,11,0.00
2014-10-13,57.7,44.4,28.4,48.9,39.4,27.1,97,84,61,30.32,30.19,12,1,12,0.00
2014-10-14,79.0,65.6,53.0,62.7,57.4,48.9,88,76,55,30.19,30.01,16,4,16,0.00
2014-10-15,77.7,69.4,63.4,65.1,62.7,59.8,89,80,63,30.01,29.87,16,3,16,0.00
2014-10-16,70.8,66.9,61.2,68.2,64.7,58.3,97,93,86,29.87,29.58,16,2,16,0.68
2014-10-17,67.3,60.2,55.7,58.7,53.6,50.2,98,80,57,29.60,29.51,17,2,17,0.00
2014-10-18,59.5,54.6,45.4,55.6,51.3,43.1,98,89,76,29.63,29.46,17,2,17,0.44
2014-10-19,45.3,40.5,37.8,43.1,36.2,29.1,94,85,69,29.95,29.63,15,3,15,0.03
2014-10-20,51.5,42.0,33.6,39.8,33.2,27.6,89,72,52,30.00,29.92,15,1,15,0.00
2014-10-21,47.2,43.9,39.3,46.7,43.0,36.6,98,97,90,30.09,29.94,3,0,3,0.42
2014-10-22,52.1,48.2,45.7,51.1,46.3,43.2,99,93,83,30.17,30.01,10,1,10,0.07
2014-10-23,48.2,45.8,44.6,45.5,43.5,41.1,97,91,82,30.02,29.80,14,1,14,0.40
2014-10-24,45.4,43.6,40.9,44.3,42.4,39.4,98,96,92,29.83,29.77,8,1,8,0.08
2014-10-25,61.1,45.8,33.3,48.7,41.6,32.8,99,87,54,29.81,29.44,16,1,16,0.13
2014-10-26,49.6,45.4,42.7,47.5,42.9,39.1,98,91,78,29.69,29.41,21,3,21,0.06
2014-10-27,51.7,43.9,38.5,43.1,39.9,37.1,95,86,69,30.03,29.68,22,4,22,0.01
2014-10-28,52.7,44.6,38.0,50.0,43.4,36.7,98,96,89,30.05,29.87,5,0,5,0.04
2014-10-29,60.3,50.3,41.5,54.8,46.1,35.9,99,87,63,29.87,29.77,14,1,14,0.02
2014-10-30,50.7,43.8,39.6,43.2,38.2,35.2,97,81,60,30.01,29.84,15,1,15,0.03
2014-10-31,52.1,43.2,34.4,36.8,34.0,28.6,94,72,42,30.06,29.97,8,0,8,0.00
2014-11-1,40.1,36.4,33.6,36.3,33.3,30.1,96,89,73,30.02,29.96,8,0,8,0.07
2014-11-2,40.4,35.7,33.1,33.3,25.7,15.6,91,68,41,30.00,29.83,23,4,23,0.00
2014-11-3,49.1,37.6,29.9,28.7,21.5,12.6,76,54,27,30.05,29.87,20,5,20,0.00
2014-11-4,54.3,43.3,30.1,40.1,33.7,26.4,89,70,53,30.10,29.88,11,1,11,0.00
2014-11-5,57.4,53.0,45.2,45.5,37.0,30.4,70,55,37,30.06,29.84,21,5,21,0.00
2014-11-6,49.0,43.3,39.3,41.4,37.7,34.8,96,81,60,30.06,29.62,7,0,7,0.36
2014-11-7,39.5,35.7,31.5,38.5,33.8,27.5,97,93,82,29.82,29.54,15,2,15,0.06
2014-11-8,40.4,35.1,30.3,30.0,25.8,22.7,82,69,54,29.95,29.80,20,2,20,0.01
2014-11-9,45.4,39.2,28.9,35.1,30.9,27.1,93,72,62,29.97,29.79,15,2,15,0.00
2014-11-10,49.8,37.9,28.7,38.5,33.1,27.0,95,84,60,30.16,29.97,5,0,5,0.00
2014-11-11,61.4,45.9,32.3,47.9,40.3,30.6,96,82,56,30.13,29.90,14,1,14,0.00
2014-11-12,54.9,45.8,38.5,52.4,42.5,31.4,98,88,73,30.03,29.77,17,2,17,0.03
2014-11-13,39.1,35.3,30.9,31.7,28.1,25.6,96,76,59,30.06,29.94,5,0,8,0.00
2014-11-14,35.4,30.4,26.4,31.5,26.7,21.7,97,87,62,30.10,29.91,11,2,16,0.06
2014-11-15,35.6,28.4,24.4,23.9,19.5,16.1,90,70,46,30.29,30.10,18,3,18,0.01
2014-11-16,37.6,32.8,24.8,26.2,23.8,19.6,84,70,59,30.29,30.05,15,2,15,0.00
2014-11-17,35.9,33.8,31.6,35.0,31.5,25.9,98,92,68,30.05,29.41,9,0,9,0.29
2014-11-18,36.4,29.2,22.4,35.6,21.3,7.4,98,74,47,29.76,29.43,28,6,28,0.11
2014-11-19,30.6,24.2,19.7,21.5,16.7,10.9,94,73,56,30.07,29.75,20,4,22,0.01
2014-11-20,34.2,27.0,0.0,25.0,17.8,0.0,80,67,50,29.94,29.73,24,3,24,0.00
2014-11-21,26.7,23.2,19.2,19.7,13.5,7.1,91,67,48,30.37,29.84,23,4,23,0.00
2014-11-22,39.6,27.0,18.6,26.9,14.7,10.8,81,62,35,30.35,29.97,14,3,14,0.01
2014-11-23,39.7,38.8,38.2,38.1,37.4,36.9,95,95,94,30.07,29.99,3,0,3,0.06
2014-11-24,65.7,50.6,36.5,58.4,47.7,35.4,99,91,60,29.99,29.39,26,2,26,0.49
2014-11-25,59.6,49.5,39.8,51.6,35.8,26.3,80,59,47,29.97,29.53,23,5,23,0.00
2014-11-26,35.3,32.0,29.0,30.0,27.8,24.4,96,85,66,30.24,29.89,5,0,5,0.00
2014-11-27,31.6,27.9,25.2,27.9,25.0,22.5,95,89,77,30.06,29.88,9,0,9,0.00
2014-11-28,27.5,23.6,20.7,23.0,20.2,16.0,95,87,71,30.20,30.02,16,2,16,0.00
2014-11-29,29.9,22.0,11.5,20.8,16.9,9.1,92,81,63,30.32,30.14,14,2,14,0.00
2014-11-30,41.7,35.0,26.5,37.6,30.7,20.6,95,84,78,30.14,29.91,13,1,13,0.37
2014-12-1,46.0,37.4,29.2,44.1,33.8,21.3,98,87,71,30.51,29.89,15,3,15,0.03
2014-12-2,30.2,24.2,14.7,25.7,16.6,9.3,94,73,55,30.76,30.40,14,2,14,0.00
2014-12-3,41.1,33.9,26.7,38.2,31.6,25.2,97,91,68,30.40,29.80,29,2,29,0.27
2014-12-4,34.9,26.9,12.8,26.2,16.3,7.2,91,64,51,30.59,30.01,26,5,26,0.00
2014-12-5,31.3,20.4,7.6,28.2,14.9,4.6,94,80,56,30.70,30.43,13,1,13,0.00
2014-12-6,33.5,31.5,29.2,32.7,30.3,27.8,97,96,91,30.43,30.18,9,0,9,0.00
2014-12-7,30.1,18.5,3.5,27.8,13.2,0.2,91,80,60,30.80,30.38,12,1,12,0.00
2014-12-8,20.8,10.7,-1.1,18.3,5.9,-4.3,90,81,61,30.81,30.55,8,0,8,0.00
2014-12-9,34.9,27.3,20.3,34.1,26.2,18.0,98,95,90,30.56,29.78,15,0,15,0.00
2014-12-10,35.1,33.6,31.9,34.1,32.6,31.4,98,96,93,29.79,29.47,16,1,16,0.10
2014-12-11,32.4,31.1,29.3,31.4,30.1,28.1,98,96,93,29.76,29.46,0,0,0,0.01
2014-12-12,30.9,29.0,27.1,28.9,27.5,25.9,96,94,92,29.94,29.76,9,1,9,0.00
2014-12-13,31.2,28.6,26.2,28.5,26.7,24.5,95,92,89,29.94,29.84,12,2,15,0.00
2014-12-14,34.4,29.5,24.5,31.8,27.7,23.0,95,93,88,29.99,29.84,8,0,8,0.00
2014-12-15,31.0,29.3,27.8,28.7,27.2,25.7,95,92,89,30.14,29.98,10,1,10,0.00
2014-12-16,35.6,32.5,28.0,34.7,30.9,26.4,97,94,92,30.13,29.91,7,1,10,0.10
2014-12-17,36.8,35.1,33.8,35.7,34.4,33.0,98,97,93,29.91,29.72,13,0,13,0.58
2014-12-18,36.6,32.5,28.1,34.7,30.7,25.9,96,93,87,29.90,29.70,23,5,23,0.12
2014-12-19,28.2,24.7,18.8,25.9,21.6,15.9,93,88,83,30.23,29.89,9,2,13,0.00
2014-12-20,30.9,18.1,9.6,21.2,14.5,7.5,92,86,65,30.37,30.22,5,0,5,0.01
2014-12-21,26.6,21.1,13.8,23.3,18.4,11.8,93,89,83,30.41,30.33,3,0,3,0.00
2014-12-22,34.4,29.4,24.9,31.3,26.9,23.0,96,90,81,30.41,30.29,3,0,4,0.00
2014-12-23,35.7,33.5,31.6,34.9,32.8,30.6,98,97,96,30.30,30.16,3,0,4,0.00
2014-12-24,39.3,37.3,34.1,38.9,36.8,33.6,99,98,98,30.17,29.49,5,0,5,0.98
2014-12-25,46.6,41.2,36.1,45.5,35.1,28.5,99,80,64,29.91,29.34,23,5,23,0.38
2014-12-26,44.0,38.3,30.9,32.9,30.7,28.5,92,74,63,30.13,29.91,22,3,22,0.02
2014-12-27,42.9,38.5,33.2,36.3,33.9,30.8,92,83,74,30.17,29.86,10,1,10,0.00
2014-12-28,45.6,39.9,30.8,41.5,33.8,21.7,93,79,64,29.98,29.71,22,4,22,0.04
2014-12-29,32.7,26.0,18.6,26.0,16.0,9.1,89,66,51,30.25,29.96,25,3,25,0.00
2014-12-30,19.1,14.4,7.4,10.6,3.9,-1.7,80,63,44,30.38,30.25,14,2,14,0.00
2014-12-31,21.7,13.9,5.0,10.4,5.7,1.5,88,71,51,30.29,29.99,19,2,19,0.00
2015-1-1,29.2,24.2,19.7,17.3,12.2,7.9,69,60,49,29.99,29.79,21,4,21,0.00
2015-1-2,29.4,23.4,13.8,25.2,16.6,2.6,94,76,56,30.48,29.82,17,4,17,0.00